Weather History for KLBL - February, 2014

Change the Weather History Date:

Monday, February 24, 2014

  Actual Average Record
Temperature  
Mean Temperature 35 °F -  
Max Temperature 55 °F 55 °F 81 °F (1976)
Min Temperature 15 °F 26 °F 1 °F (2003)
Degree Days  
Heating Degree Days 30    
Moisture  
Dew Point 19 °F    
Average Humidity 58    
Maximum Humidity 86    
Minimum Humidity 30    
Precipitation  
Precipitation 0.00 in - - ()
Sea Level Pressure  
Sea Level Pressure 30.09 in    
Wind  
Wind Speed 9 mph (ESE)    
Max Wind Speed 22 mph    
Max Gust Speed 25 mph    
Visibility 10 miles    
Events      
Averages and records for this station are not official NWS values.
T = Trace of Precipitation, MM = Missing Value Source: NWS Daily Summary

Daily Weather History Graph

Daily Weather History Graph

Search for Another Location

Airport or City:

Trip Planner

Search our weather history database for the weather conditions in past years. The results will help you decide how hot, cold, wet, or windy it might be!

Date:

Astronomy

Feb. 24, 2014 Rise Set
Actual Time 7:21 AM CST 6:33 PM CST
Civil Twilight 6:55 AM CST 6:59 PM CST
Nautical Twilight 6:25 AM CST 7:29 PM CST
Astronomical Twilight 5:54 AM CST 7:59 PM CST
Moon 3:17 AM CST (2/24) 1:40 PM CST (2/24)
Length of Visible Light 12h 04m
Length of Day
11h 11m
Waning Crescent, 28% of the Moon is Illuminated
Feb 24
Waning Crescent
Mar 1
New
Mar 8
First Quarter
Mar 16
Full
Mar 23
Last Quarter

Hourly Weather History & Observations

Time (CST) Temp. Windchill Dew Point Humidity Pressure Visibility Wind Dir Wind Speed Gust Speed Precip Events Conditions
12:15 AM 24.8 °F 15.3 °F 17.6 °F 74% 30.18 in 10.0 mi East 9.2 mph - N/A   Clear
12:35 AM 24.8 °F 14.6 °F 17.6 °F 74% 30.19 in 10.0 mi East 10.4 mph - N/A   Clear
12:55 AM 24.8 °F 16.1 °F 17.6 °F 74% 30.20 in 10.0 mi East 8.1 mph - N/A   Clear
1:15 AM 24.8 °F 15.3 °F 17.6 °F 74% 30.18 in 10.0 mi East 9.2 mph - N/A   Clear
1:35 AM 24.8 °F 15.3 °F 17.6 °F 74% 30.18 in 10.0 mi East 9.2 mph - N/A   Clear
1:55 AM 23.0 °F 13.1 °F 15.8 °F 74% 30.18 in 10.0 mi East 9.2 mph - N/A   Clear
2:15 AM 23.0 °F 13.9 °F 15.8 °F 74% 30.18 in 10.0 mi East 8.1 mph - N/A   Clear
2:35 AM 21.2 °F 12.6 °F 15.8 °F 80% 30.18 in 10.0 mi East 6.9 mph - N/A   Clear
2:55 AM 21.2 °F 11.7 °F 15.8 °F 80% 30.18 in 10.0 mi East 8.1 mph - N/A   Clear
3:15 AM 21.2 °F 11.7 °F 15.8 °F 80% 30.17 in 10.0 mi East 8.1 mph - N/A   Clear
3:35 AM 21.2 °F 11.7 °F 15.8 °F 80% 30.17 in 10.0 mi ESE 8.1 mph - N/A   Clear
3:55 AM 21.2 °F 12.6 °F 15.8 °F 80% 30.16 in 10.0 mi ESE 6.9 mph - N/A   Clear
4:15 AM 19.4 °F 10.4 °F 14.0 °F 80% 30.16 in 10.0 mi ESE 6.9 mph - N/A   Clear
4:35 AM 19.4 °F 11.5 °F 14.0 °F 80% 30.15 in 10.0 mi ESE 5.8 mph - N/A   Clear
4:55 AM 19.4 °F 11.5 °F 14.0 °F 80% 30.15 in 10.0 mi ESE 5.8 mph - N/A   Clear
5:15 AM 19.4 °F 12.8 °F 14.0 °F 80% 30.15 in 10.0 mi ESE 4.6 mph - N/A   Clear
5:35 AM 19.4 °F 14.3 °F 12.2 °F 74% 30.15 in 10.0 mi SE 3.5 mph - N/A   Clear
5:55 AM 15.8 °F 8.6 °F 10.4 °F 79% 30.14 in 10.0 mi South 4.6 mph - N/A   Clear
6:15 AM 15.8 °F - 12.2 °F 86% 30.15 in 10.0 mi Calm Calm - N/A   Clear
6:35 AM 15.8 °F - 10.4 °F 79% 30.15 in 10.0 mi Calm Calm - N/A   Clear
6:55 AM 17.6 °F - 10.4 °F 73% 30.15 in 10.0 mi Calm Calm - N/A   Clear
7:15 AM 15.8 °F - 10.4 °F 79% 30.15 in 10.0 mi Calm Calm - N/A   Clear
7:35 AM 15.8 °F - 10.4 °F 79% 30.15 in 10.0 mi Calm Calm - N/A   Clear
7:55 AM 17.6 °F - 10.4 °F 73% 30.16 in 10.0 mi Calm Calm - N/A   Clear
8:15 AM 19.4 °F - 14.0 °F 80% 30.16 in 9.0 mi Calm Calm - N/A   Clear
8:35 AM 21.2 °F 12.6 °F 15.8 °F 80% 30.16 in 10.0 mi SSE 6.9 mph - N/A   Clear
8:55 AM 23.0 °F 13.1 °F 17.6 °F 80% 30.15 in 10.0 mi SSE 9.2 mph - N/A   Clear
9:15 AM 24.8 °F 15.3 °F 17.6 °F 74% 30.15 in 10.0 mi SE 9.2 mph - N/A   Clear
9:35 AM 26.6 °F 16.8 °F 17.6 °F 69% 30.14 in 10.0 mi SE 10.4 mph - N/A   Clear
9:55 AM 28.4 °F 18.5 °F 19.4 °F 69% 30.13 in 10.0 mi SE 11.5 mph - N/A   Clear
10:15 AM 28.4 °F 18.5 °F 19.4 °F 69% 30.13 in 10.0 mi SE 11.5 mph - N/A   Clear
10:35 AM 30.2 °F 19.3 °F 21.2 °F 69% 30.12 in 10.0 mi SE 15.0 mph - N/A   Clear
10:55 AM 33.8 °F 24.3 °F 21.2 °F 60% 30.11 in 10.0 mi SE 13.8 mph - N/A   Clear
11:15 AM 33.8 °F 24.3 °F 21.2 °F 60% 30.11 in 10.0 mi SE 13.8 mph 20.7 mph N/A   Clear
11:35 AM 37.4 °F 28.9 °F 23.0 °F 56% 30.10 in 10.0 mi SSE 13.8 mph 19.6 mph N/A   Clear
11:55 AM 39.2 °F 31.2 °F 23.0 °F 52% 30.10 in 10.0 mi SE 13.8 mph 18.4 mph N/A   Clear
12:15 PM 41.0 °F 34.3 °F 24.8 °F 53% 30.08 in 10.0 mi SSE 11.5 mph 19.6 mph N/A   Clear
12:35 PM 42.8 °F 35.8 °F 24.8 °F 49% 30.07 in 10.0 mi SSE 13.8 mph 20.7 mph N/A   Clear
12:55 PM 44.6 °F 38.8 °F 26.6 °F 49% 30.06 in 10.0 mi SSE 11.5 mph 17.3 mph N/A   Clear
1:15 PM 46.4 °F 40.4 °F 24.8 °F 43% 30.03 in 10.0 mi South 13.8 mph 20.7 mph N/A   Clear
1:35 PM 48.2 °F - 24.8 °F 40% 30.03 in 10.0 mi South 13.8 mph 18.4 mph N/A   Clear
1:55 PM 50.0 °F - 24.8 °F 37% 30.01 in 10.0 mi South 13.8 mph 18.4 mph N/A   Clear
2:15 PM 51.8 °F - 24.8 °F 35% 29.99 in 10.0 mi South 12.7 mph - N/A   Clear
2:35 PM 51.8 °F - 26.6 °F 38% 29.99 in 10.0 mi SSW 10.4 mph 16.1 mph N/A   Clear
2:55 PM 51.8 °F - 24.8 °F 35% 29.98 in 10.0 mi South 6.9 mph - N/A   Clear
3:15 PM 53.6 °F - 24.8 °F 33% 29.97 in 10.0 mi South 9.2 mph - N/A   Clear
3:35 PM 51.8 °F - 24.8 °F 35% 29.97 in 10.0 mi South 9.2 mph - N/A   Clear
3:55 PM 53.6 °F - 24.8 °F 33% 29.96 in 10.0 mi South 10.4 mph - N/A   Clear
4:15 PM 55.4 °F - 24.8 °F 31% 29.95 in 10.0 mi South 10.4 mph - N/A   Clear
4:35 PM 55.4 °F - 24.8 °F 31% 29.95 in 10.0 mi SSE 8.1 mph - N/A   Clear
4:55 PM 55.4 °F - 24.8 °F 31% 29.95 in 10.0 mi SSE 8.1 mph - N/A   Clear
5:15 PM 55.4 °F - 24.8 °F 31% 29.95 in 10.0 mi SE 8.1 mph - N/A   Clear
5:35 PM 55.4 °F - 24.8 °F 31% 29.95 in 10.0 mi SE 9.2 mph - N/A   Clear
5:55 PM 55.4 °F - 24.8 °F 31% 29.95 in 10.0 mi SE 8.1 mph - N/A   Clear
6:15 PM 53.6 °F - 23.0 °F 30% 29.96 in 10.0 mi ESE 8.1 mph - N/A   Clear
6:35 PM 51.8 °F - 21.2 °F 30% 29.97 in 10.0 mi East 8.1 mph - N/A   Clear
6:55 PM 48.2 °F - 21.2 °F 34% 29.98 in 10.0 mi East 8.1 mph - N/A   Clear
7:15 PM 48.2 °F - 23.0 °F 37% 29.98 in 10.0 mi East 10.4 mph - N/A   Clear
7:35 PM 48.2 °F - 23.0 °F 37% 29.99 in 10.0 mi East 11.5 mph - N/A   Clear
7:55 PM 46.4 °F 41.5 °F 23.0 °F 40% 30.00 in 10.0 mi East 10.4 mph - N/A   Clear
8:15 PM 44.6 °F 38.1 °F 23.0 °F 43% 30.00 in 10.0 mi East 13.8 mph - N/A   Clear
8:35 PM 42.8 °F 36.6 °F 21.2 °F 42% 30.02 in 10.0 mi East 11.5 mph - N/A   Clear
8:55 PM 41.0 °F 34.7 °F 21.2 °F 45% 30.04 in 10.0 mi East 10.4 mph - N/A   Clear
9:15 PM 39.2 °F 32.0 °F 21.2 °F 49% 30.05 in 10.0 mi East 11.5 mph - N/A   Clear
9:35 PM 39.2 °F 31.6 °F 21.2 °F 49% 30.06 in 10.0 mi East 12.7 mph - N/A   Clear
9:55 PM 39.2 °F 32.5 °F 21.2 °F 49% 30.08 in 10.0 mi ENE 10.4 mph - N/A   Clear
10:15 PM 37.4 °F 28.2 °F 19.4 °F 48% 30.12 in 10.0 mi NE 16.1 mph 25.3 mph N/A   Clear
10:35 PM 35.6 °F 25.5 °F 19.4 °F 52% 30.13 in 10.0 mi NE 17.3 mph 25.3 mph N/A   Clear
10:55 PM 35.6 °F 25.9 °F 19.4 °F 52% 30.16 in 10.0 mi North 16.1 mph - N/A   Clear
11:15 PM 33.8 °F 23.5 °F 19.4 °F 56% 30.17 in 10.0 mi North 16.1 mph - N/A   Clear
11:35 PM 33.8 °F 23.5 °F 17.6 °F 52% 30.20 in 10.0 mi NNE 16.1 mph - N/A   Clear
11:55 PM 32.0 °F 19.5 °F 19.4 °F 60% 30.21 in 10.0 mi NNE 21.9 mph 25.3 mph N/A   Clear